Torna al catalogo

KSLV-II R/B

AttivoSSO
NORAD 66663·ROCKET BODY·🇰🇷 South Korea

Lanciato Nov 26, 2025 da Naro Space Center

Loading…

Prossimi Passaggi (prossime 24 ore)

TLE

AggiornatoSource: Space-Track

Epoca: Sep 14, 2026, 13:25 UTC

1 66663U 25274P   26257.55952632  .00005791  00000-0  46535-3 0  9994
2 66663  97.7535 188.0398 0064761 102.3206 258.5277 14.98755717 43715

Traccia KSLV-II R/B in tempo reale con AllMySat

Download on the App Store